Location: Boiro
(42.6475°N, 8.8834°W)
Time: 16:42:55
(UTC+02:00)

deb Agena D - Visible Passes

Search period start: 03 July 2022 00:00
Search period end: 13 July 2022 00:00
Orbit: 998 x 1024 km, 100.1° (Epoch: 03 July)

Date Brightness Start Highest point End Pass type
(mag) Time Alt. Az. Time Alt. Az. Time Alt. Az.
03 Jul ? 00:15:32 14° ESE 00:19:28 24° ENE 00:24:23 10° N visible
03 Jul ? 02:00:57 45° SSW 02:02:48 63° WSW 02:09:07 10° NNW visible
04 Jul ? 00:51:24 26° ESE 00:54:25 42° ENE 01:00:20 10° N visible
04 Jul ? 02:36:49 31° WSW 02:38:18 34° W 02:44:02 10° NNW visible
04 Jul ? 23:43:38 10° E 23:46:46 14° NE 23:49:54 10° NNE visible
05 Jul ? 01:27:16 42° SE 01:29:33 75° ENE 01:35:55 10° NNW visible
05 Jul ? 03:12:41 17° WSW 03:13:59 18° W 03:18:12 10° NW visible
06 Jul ? 00:17:43 14° ESE 00:21:31 25° ENE 00:26:30 10° N visible
06 Jul ? 02:03:08 46° SSW 02:04:53 62° WSW 02:11:12 10° NNW visible
07 Jul ? 00:53:35 27° ESE 00:56:29 43° ENE 01:02:25 10° N visible
07 Jul ? 02:39:00 30° WSW 02:40:23 33° W 02:46:05 10° NNW visible
07 Jul ? 23:45:34 10° E 23:48:49 15° NE 23:52:04 10° NNE visible
08 Jul ? 01:29:27 44° SSE 01:31:37 77° ENE 01:38:00 10° NNW visible
08 Jul ? 03:14:52 17° WSW 03:16:05 18° W 03:20:13 10° NW visible
09 Jul ? 00:19:55 15° ESE 00:23:35 25° ENE 00:28:37 10° N visible
09 Jul ? 02:05:20 46° SSW 02:06:58 60° WSW 02:13:16 10° NNW visible
10 Jul ? 00:55:47 29° ESE 00:58:33 44° ENE 01:04:31 10° N visible
10 Jul ? 02:41:12 30° WSW 02:42:28 33° W 02:48:07 10° NW visible
10 Jul ? 23:47:32 10° E 23:50:52 15° NE 23:54:13 10° NNE visible
11 Jul ? 01:31:40 46° SSE 01:33:42 79° ENE 01:40:05 10° NNW visible
11 Jul ? 03:17:05 17° WSW 03:18:11 17° W 03:22:13 10° NW visible
12 Jul ? 00:22:07 16° ESE 00:25:39 26° ENE 00:30:43 10° N visible
12 Jul ? 02:07:32 47° SSW 02:09:02 59° WSW 02:15:20 10° NNW visible
